BAW55W EGLL-EIDW

Flight info

Callsign BAW55W
Flight time N/A
Altitude 32000
Route CPT L9 DIDZA N14 BIBPE DCT OKTAD DCT MEDOG DCT KRAGY DCT PEMOB DCT LEMGU M17 VATRY VATRY4L
Aircraft A320/M-SDE3FGHIRWY/LB1

Departure

Time 2026-05-01 15:20
Airport London Heathrow Airport (EGLL)

Arrival

Time N/A
Airport Dublin Airport (EIDW)
Time Latitude Longitude Altitude Speed Heading
2026-05-01 14:53 51.47133 -0.48612 86 ft 0 kts 270°
2026-05-01 15:09 51.47133 -0.48576 87 ft 3 kts 269°
2026-05-01 15:09 51.47134 -0.48543 88 ft 4 kts 266°
2026-05-01 15:09 51.47138 -0.48501 88 ft 4 kts 245°
2026-05-01 15:09 51.47153 -0.48475 89 ft 4 kts 182°
2026-05-01 15:10 51.47163 -0.48475 88 ft 0 kts 180°
2026-05-01 15:12 51.47158 -0.48475 88 ft 2 kts 180°
2026-05-01 15:13 51.46948 -0.48470 87 ft 16 kts 180°
2026-05-01 15:14 51.46713 -0.48467 86 ft 13 kts 179°
2026-05-01 15:14 51.46653 -0.48390 88 ft 13 kts 94°
2026-05-01 15:14 51.46654 -0.48040 86 ft 18 kts 90°
2026-05-01 15:15 51.46655 -0.47589 86 ft 22 kts 90°
2026-05-01 15:15 51.46657 -0.47105 90 ft 17 kts 89°
2026-05-01 15:16 51.46659 -0.46679 88 ft 21 kts 88°
2026-05-01 15:16 51.46660 -0.46162 88 ft 25 kts 91°
2026-05-01 15:17 51.46661 -0.45563 86 ft 28 kts 89°
2026-05-01 15:18 51.46664 -0.44757 86 ft 23 kts 90°
2026-05-01 15:18 51.46664 -0.44489 86 ft 25 kts 90°
2026-05-01 15:19 51.46578 -0.44050 86 ft 11 kts 179°
2026-05-01 15:19 51.46492 -0.44225 86 ft 15 kts 269°
2026-05-01 15:19 51.46491 -0.44380 87 ft 37 kts 270°
2026-05-01 15:20 51.46480 -0.47173 88 ft 165 kts 270°
2026-05-01 15:20 51.46496 -0.49048 645 ft 163 kts 265°
2026-05-01 15:20 51.46505 -0.50259 1165 ft 159 kts 265°
2026-05-01 15:21 51.46490 -0.52064 1627 ft 170 kts 264°
2026-05-01 15:21 51.46447 -0.54059 1959 ft 187 kts 264°
2026-05-01 15:21 51.46400 -0.56265 2175 ft 214 kts 265°
2026-05-01 15:21 51.46361 -0.58798 2565 ft 239 kts 264°
2026-05-01 15:22 51.45964 -0.64302 4066 ft 254 kts 252°
2026-05-01 15:22 51.45548 -0.67086 4895 ft 260 kts 257°
2026-05-01 15:22 51.45448 -0.70024 5659 ft 268 kts 265°
2026-05-01 15:23 51.45419 -0.73030 5924 ft 270 kts 266°
2026-05-01 15:23 51.45390 -0.76035 5996 ft 269 kts 265°
2026-05-01 15:23 51.45362 -0.79034 6004 ft 268 kts 265°
2026-05-01 15:23 51.45332 -0.82021 6004 ft 268 kts 266°
2026-05-01 15:24 51.45301 -0.85012 6001 ft 267 kts 265°
2026-05-01 15:24 51.45315 -0.87973 6355 ft 273 kts 272°
2026-05-01 15:24 51.45638 -0.90990 7226 ft 276 kts 276°
2026-05-01 15:24 51.45986 -0.94030 8011 ft 279 kts 276°
2026-05-01 15:25 51.46337 -0.97125 8800 ft 284 kts 276°
2026-05-01 15:25 51.46694 -1.00263 9579 ft 288 kts 276°
2026-05-01 15:25 51.47056 -1.03450 10311 ft 292 kts 275°
2026-05-01 15:25 51.47429 -1.06772 10581 ft 314 kts 275°
2026-05-01 15:26 51.47825 -1.10346 10761 ft 336 kts 276°
2026-05-01 15:26 51.48245 -1.14099 11259 ft 345 kts 276°
2026-05-01 15:26 51.48747 -1.17900 11906 ft 352 kts 283°
2026-05-01 15:26 51.49707 -1.21557 12559 ft 361 kts 296°
2026-05-01 15:27 51.51168 -1.24892 13213 ft 370 kts 309°
2026-05-01 15:27 51.53019 -1.27807 13869 ft 375 kts 314°
2026-05-01 15:27 51.54930 -1.30687 14469 ft 378 kts 314°
2026-05-01 15:28 51.58795 -1.36542 15639 ft 385 kts 314°
2026-05-01 15:28 51.60613 -1.39714 16189 ft 385 kts 304°
2026-05-01 15:28 51.62048 -1.43336 16746 ft 384 kts 294°
2026-05-01 15:29 51.64572 -1.50948 17890 ft 391 kts 294°
2026-05-01 15:29 51.65864 -1.54831 18459 ft 395 kts 294°
2026-05-01 15:29 51.68475 -1.62700 19544 ft 401 kts 294°
2026-05-01 15:30 51.70537 -1.71026 20632 ft 400 kts 277°
2026-05-01 15:31 51.72168 -1.88921 22642 ft 412 kts 279°
2026-05-01 15:31 51.73524 -1.97909 23645 ft 417 kts 279°
2026-05-01 15:32 51.74884 -2.07056 24456 ft 421 kts 279°
2026-05-01 15:32 51.76246 -2.16307 25219 ft 426 kts 279°
2026-05-01 15:33 51.78302 -2.30391 26305 ft 433 kts 279°
2026-05-01 15:34 51.80371 -2.44698 27378 ft 439 kts 278°